Temp
72 74 77 76 78 74 72 71 70 71 70 70 67 66 66 67 67 67 66 67 66 65 64 64 64 64 63 63 63 63 61 61
67 69 70 71 71 73 71 69 70 70 68 67 66 66 66 65 66 67 67 65 65 65 64 64 65 64 63 63 63 61 61 62
66 67 67 66 70 70 68 70 69 70 69 69 69 69 66 66 66 67 68 67 67 66 65 64 64 63 63 62 62 61 61 62
66 67 65 63 63 66 67 72 70 70 71 69 64 65 63 62 65 66 67 67 66 66 65 65 64 64 62 62 62 61 59 61
63 60 58 58 61 62 68 73 70 71 70 68 66 66 64 66 66 66 66 66 66 65 65 64 64 64 63 62 63 62 61 59
55 55 56 58 58 59 64 71 70 71 68 68 66 65 66 63 63 64 64 64 65 64 65 64 64 64 63 63 62 61 62 61
53 55 56 55 58 60 61 67 68 68 68 68 66 64 63 62 63 63 63 63 63 64 64 64 64 64 63 63 63 62 61 61
48 49 50 52 52 57 60 66 67 67 67 66 65 64 63 63 62 62 62 62 62 62 63 62 63 63 63 63 62 62 61 61
46 48 49 49 50 51 57 62 66 65 64 64 64 64 63 63 62 61 61 62 61 63 63 63 63 63 63 63 62 62 62 61
44 46 46 46 47 48 50 59 61 63 63 63 62 62 63 63 61 62 62 61 61 62 62 61 62 62 62 62 61 61 61 61
42 43 43 45 45 46 49 51 54 60 61 62 63 62 61 61 61 61 60 59 60 60 61 61 61 61 62 62 61 61 61 61
39 40 41 42 44 44 46 48 49 53 59 59 60 60 61 60 60 59 58 58 57 58 59 59 60 60 61 60 60 61 60 60
36 38 39 39 40 42 44 46 45 48 56 58 59 61 61 60 59 58 58 56 57 58 56 57 58 58 60 59 59 60 60 59
34 35 36 37 38 39 41 43 43 46 50 58 59 60 60 59 58 58 57 57 57 57 57 57 57 57 58 59 60 59 59 59
33 33 34 35 36 37 38 40 42 44 49 59 59 59 59 59 59 58 57 57 57 57 57 56 56 55 56 58 59 59 59 59
31 31 32 33 34 35 37 39 40 43 44 47 52 59 59 59 58 58 57 58 57 57 57 56 55 53 49 50 58 58 58 58
30 31 32 32 33 33 36 37 38 40 40 41 44 49 58 58 58 58 56 54 55 54 54 53 48 46 38 40 50 56 57 56
28 29 30 31 32 33 33 35 38 37 37 38 39 41 44 46 47 45 44 43 43 41 42 42 41 40 38 40 42 51 47 49
27 28 29 31 32 32 33 33 34 35 35 35 36 37 38 39 39 38 37 37 36 36 36 37 38 38 37 38 38 40 38 38
MSLP
1000.53 1000.00 999.71 999.84 1000.10 1000.47 1000.95 1001.51 1002.15 1002.88 1003.76 1004.74 1005.73 1006.44 1006.82 1007.32 1007.66 1008.11 1008.56 1009.16 1009.66 1010.14 1010.87 1011.51 1012.13 1012.98 1013.58 1014.02 1014.52 1015.14 1015.57 1015.98
1000.03 999.71 999.14 998.80 999.10 999.60 1000.01 1000.80 1001.48 1002.35 1003.43 1004.19 1005.24 1005.73 1006.40 1006.87 1007.16 1007.61 1008.16 1008.80 1009.40 1009.99 1010.66 1011.31 1011.95 1012.54 1012.94 1013.52 1014.08 1014.68 1015.16 1015.61
1000.04 999.48 999.27 999.16 998.87 998.88 999.52 999.81 1000.45 1001.24 1002.01 1002.72 1003.37 1004.41 1005.68 1006.22 1006.79 1007.24 1007.56 1008.20 1008.83 1009.52 1010.26 1010.99 1011.58 1012.17 1012.60 1013.03 1013.52 1013.97 1014.48 1014.91
999.32 999.06 999.15 999.19 998.75 998.55 998.73 998.78 999.51 1000.08 1000.89 1002.32 1003.36 1004.35 1005.47 1006.23 1006.56 1006.92 1007.36 1007.84 1008.28 1008.95 1009.70 1010.31 1011.09 1011.62 1012.00 1012.37 1012.91 1013.26 1013.81 1014.27
999.28 999.26 999.16 999.02 998.96 998.27 997.76 998.08 998.61 999.46 1000.48 1001.58 1002.33 1003.03 1004.30 1004.74 1005.45 1006.16 1006.74 1007.41 1007.86 1008.56 1009.26 1009.88 1010.49 1010.97 1011.41 1011.71 1012.16 1012.60 1013.17 1013.46
1000.45 1000.28 1000.22 999.78 999.58 998.89 997.75 997.99 998.83 998.93 999.82 1000.79 1001.80 1002.83 1003.56 1004.43 1005.21 1005.92 1006.46 1006.92 1007.55 1008.15 1008.64 1009.29 1009.86 1010.30 1010.70 1011.06 1011.62 1012.05 1012.36 1012.64
1001.51 1001.17 1000.34 1000.10 999.57 999.23 998.17 998.20 998.48 999.28 999.52 1000.48 1001.24 1002.15 1003.15 1004.18 1004.98 1005.50 1005.98 1006.47 1007.06 1007.63 1008.37 1008.78 1009.36 1009.66 1009.94 1010.32 1010.90 1011.23 1011.73 1011.91
1002.30 1001.70 1001.65 1001.32 1000.66 999.72 998.61 998.22 998.61 999.14 999.56 1000.10 1000.82 1001.43 1002.45 1003.22 1004.07 1004.65 1005.36 1005.99 1006.65 1007.19 1007.82 1008.34 1008.75 1008.99 1009.34 1009.78 1010.23 1010.52 1010.98 1011.24
1003.80 1003.89 1003.60 1002.67 1002.16 1001.18 1000.18 999.37 998.71 999.03 999.62 1000.06 1000.64 1001.44 1002.18 1002.88 1003.55 1003.93 1004.54 1005.38 1005.96 1006.63 1007.28 1007.74 1008.13 1008.52 1008.88 1009.22 1009.48 1009.74 1010.14 1010.52
1004.70 1005.26 1004.41 1004.09 1003.86 1003.26 1002.43 1000.71 999.89 999.70 999.84 1000.28 1000.95 1001.52 1002.04 1002.56 1003.07 1003.44 1004.16 1004.89 1005.62 1006.23 1006.84 1007.39 1007.64 1007.89 1008.19 1008.47 1008.66 1008.83 1009.46 1009.85
1007.44 1006.84 1006.24 1005.72 1005.26 1004.51 1003.40 1002.21 1001.42 1000.26 1000.11 1000.30 1000.60 1001.25 1001.77 1002.28 1002.79 1003.55 1004.03 1004.74 1005.30 1006.05 1006.51 1006.91 1007.09 1007.26 1007.45 1007.72 1007.91 1008.21 1008.36 1008.81
1009.24 1008.16 1007.41 1006.86 1006.09 1005.16 1004.09 1003.29 1002.68 1001.91 1001.08 1000.71 1000.76 1001.17 1001.54 1002.26 1002.96 1003.58 1004.06 1004.69 1005.35 1005.99 1006.27 1006.50 1006.65 1006.64 1006.68 1006.92 1007.01 1007.08 1007.32 1007.96
1010.13 1009.59 1009.01 1008.31 1007.46 1006.28 1005.50 1004.74 1004.08 1003.26 1002.08 1001.41 1001.10 1001.40 1001.81 1002.65 1003.24 1003.94 1004.36 1005.02 1005.61 1005.90 1006.10 1006.33 1006.32 1006.28 1006.10 1006.14 1006.35 1005.76 1006.17 1006.97
1011.47 1010.87 1010.50 1009.92 1009.32 1008.12 1007.12 1006.24 1005.45 1004.34 1003.24 1002.37 1001.90 1002.22 1002.21 1003.07 1003.62 1003.95 1004.38 1004.97 1005.48 1005.76 1005.97 1005.90 1005.98 1005.98 1005.83 1005.65 1005.40 1005.34 1005.68 1006.16
1012.74 1012.21 1011.54 1011.11 1010.36 1009.43 1008.49 1007.69 1006.98 1006.03 1004.56 1002.92 1002.55 1002.69 1002.62 1002.95 1003.33 1003.85 1004.36 1004.98 1005.30 1005.50 1005.61 1005.69 1005.81 1005.74 1005.58 1005.05 1004.91 1005.02 1005.43 1005.88
1013.98 1013.45 1012.99 1012.30 1011.46 1010.66 1009.75 1008.97 1007.96 1007.11 1006.09 1004.78 1004.10 1003.22 1003.13 1003.24 1003.48 1003.93 1004.35 1004.84 1005.23 1005.44 1005.68 1005.93 1005.88 1005.96 1006.06 1005.57 1004.35 1004.79 1005.14 1005.69
1015.31 1014.68 1014.15 1013.37 1012.73 1011.94 1011.03 1010.26 1009.51 1008.64 1007.44 1006.50 1005.68 1004.79 1003.99 1004.08 1004.23 1004.46 1004.85 1005.34 1005.50 1005.75 1006.02 1006.25 1006.53 1006.64 1006.76 1005.96 1005.35 1004.97 1005.33 1005.63
1017.18 1016.39 1015.61 1014.81 1014.08 1013.46 1012.62 1011.74 1010.83 1009.64 1009.03 1008.23 1007.42 1006.79 1006.34 1005.87 1005.40 1005.51 1006.11 1006.58 1006.88 1007.18 1007.53 1007.61 1007.72 1007.66 1007.16 1006.74 1006.20 1006.19 1006.66 1006.66
1018.47 1017.80 1016.91 1015.98 1015.28 1014.53 1013.74 1012.90 1012.13 1011.53 1010.66 1009.75 1009.33 1008.96 1008.35 1007.79 1007.40 1007.01 1007.25 1007.71 1008.18 1008.64 1008.79 1008.76 1008.61 1008.53 1008.14 1007.57 1007.15 1007.66 1008.17 1008.32
Wind_Speed
18 17 19 15 15 14 18 16 18 18 13 10 6 7 6 8 8 8 10 9 11 9 8 10 10 9 8 8 9 8 7 7
11 10 10 10 11 10 16 16 16 13 11 12 9 11 9 7 7 10 10 9 10 10 8 10 10 10 10 11 8 10 8 8
10 9 10 9 13 12 13 17 17 15 13 13 7 11 6 7 6 8 10 12 13 11 11 10 11 8 10 11 9 7 7 8
12 9 9 9 10 11 13 18 20 19 17 10 5 7 4 3 7 9 9 11 11 11 11 10 11 10 9 11 12 12 8 7
2 6 6 7 6 7 12 17 20 18 17 15 18 14 12 9 9 6 8 9 12 11 11 11 11 9 10 10 11 12 10 9
7 7 6 6 7 8 7 13 14 19 19 17 14 12 9 5 6 10 10 10 10 10 12 12 12 9 11 13 13 12 10 10
12 10 13 15 14 9 5 12 16 16 19 18 18 17 12 10 10 10 9 7 8 11 10 10 12 12 11 11 13 15 13 11
17 20 18 18 20 20 5 13 15 16 17 17 16 15 15 15 14 10 11 7 7 9 11 11 9 10 11 11 13 14 14 12
18 18 16 18 20 21 19 5 14 16 14 13 11 11 9 10 12 9 8 9 9 10 10 11 13 12 12 12 10 10 12 12
22 19 20 19 18 18 18 15 9 7 9 8 8 10 11 10 9 8 8 8 7 9 10 10 11 12 13 12 11 13 13 14
18 17 19 17 16 15 16 17 16 7 5 10 10 10 7 6 8 9 9 7 7 8 10 11 11 12 13 14 13 13 14 14
16 17 18 18 17 17 18 18 18 16 3 4 8 8 9 8 7 7 7 6 6 6 7 7 9 10 11 11 13 16 17 15
17 17 18 19 20 20 18 17 18 16 14 2 7 9 11 9 7 5 6 6 5 5 5 6 6 7 10 13 13 11 16 17
17 18 18 17 17 18 18 18 18 17 16 3 5 6 10 7 8 7 6 5 4 4 5 5 6 7 10 12 14 12 12 12
19 18 18 17 17 17 18 17 16 17 15 4 5 4 6 8 6 6 6 5 5 5 4 3 4 3 5 9 10 12 13 12
19 18 17 17 17 17 17 16 16 16 15 14 13 1 4 5 7 5 5 5 4 4 3 2 2 4 5 7 9 8 11 11
19 19 19 18 18 17 16 16 15 14 15 15 15 15 5 3 4 5 6 6 5 5 5 5 5 3 11 12 7 4 9 10
18 18 17 16 17 16 16 16 14 15 15 17 17 16 12 10 9 11 10 10 9 10 10 9 8 8 13 9 8 6 7 7
16 14 15 15 16 16 15 16 16 15 15 17 17 15 13 12 10 11 12 10 11 10 10 9 9 10 16 8 14 9 9 9
Wind_Direction
260 268 252 224 221 196 186 186 188 186 179 179 155 172 163 174 175 178 164 171 169 161 160 163 166 174 180 175 179 184 189 191
250 262 259 223 225 206 182 181 189 172 174 177 180 179 181 176 173 167 165 161 166 162 164 166 172 181 182 179 181 188 190 190
248 246 256 234 224 215 185 186 177 183 180 189 185 178 184 179 168 165 175 172 172 172 168 177 180 176 180 179 182 184 196 182
258 255 240 242 229 224 189 190 182 185 183 165 114 115 97 120 173 182 185 170 168 171 174 176 182 181 187 186 185 184 191 191
340 14 15 357 335 283 197 192 179 183 171 170 170 170 178 192 187 179 175 179 169 169 175 183 185 188 190 190 189 191 188 186
57 27 345 352 337 330 210 189 185 173 174 174 169 176 182 151 158 171 177 174 173 182 184 183 190 193 195 190 193 194 198 184
35 18 18 11 357 13 239 179 179 178 173 172 175 173 165 159 169 181 183 177 177 187 189 193 200 201 200 197 201 197 199 191
23 24 16 11 5 357 292 177 180 182 179 176 180 170 170 172 177 178 173 174 187 193 192 197 200 200 201 201 200 198 195 190
26 19 13 15 6 1 0 321 185 179 180 179 172 163 168 175 180 170 173 188 190 186 197 202 206 205 205 205 202 199 198 198
27 10 13 13 5 359 354 1 4 193 172 160 161 168 168 182 178 165 169 173 172 181 190 206 208 202 202 202 212 208 201 197
16 13 9 5 4 358 1 4 356 333 181 176 167 172 161 139 142 161 157 153 151 182 199 213 213 212 212 211 210 214 207 196
15 12 8 2 1 3 5 4 359 356 288 175 147 141 130 121 136 133 137 122 141 180 195 208 220 216 214 218 219 212 200 198
17 17 10 8 1 358 359 359 356 349 339 305 126 126 116 115 116 131 129 145 173 186 202 218 233 245 228 219 223 201 201 193
17 16 11 8 1 360 359 359 352 346 337 325 96 121 120 124 145 143 139 139 174 190 203 216 227 238 244 241 223 185 196 186
11 13 10 5 2 1 358 356 356 346 329 294 120 125 129 140 144 144 154 164 172 179 195 197 218 266 277 230 194 200 193 186
12 9 7 4 3 0 1 358 356 353 355 9 355 148 132 137 147 151 142 152 164 160 162 156 92 48 12 318 202 190 182 180
9 8 5 8 4 1 359 359 359 360 8 8 3 3 35 85 110 102 85 64 51 61 32 72 50 28 347 349 9 112 175 162
7 6 3 6 5 4 3 0 360 14 21 13 12 9 15 28 63 74 69 64 60 57 45 41 32 4 340 347 33 57 44 47
7 2 360 5 8 10 9 11 14 16 22 28 15 13 12 23 36 69 70 63 56 49 43 39 42 26 20 41 85 80 70 55